1289433631791,33.6509
1289433691791,33.7723
1289433751791,34.0701
1289433811791,33.7392
1289433871791,33.7927
1289433931791,33.7153
1289433991791,33.6600
1289434051791,33.6267
1289434111791,33.6827
1289434171791,33.7035
1289434231791,33.6050
1289434291791,33.6008
1289434351791,33.6414
1289434411791,33.6120
1289434471791,33.6957
1289434531791,33.5884
1289434591791,33.7794
1289434651791,33.6783
1289434711791,33.7332
1289434771791,33.7493
1289434831791,33.5889
1289434891791,33.7103
1289434951791,33.6303
1289435011791,33.6505
1289435071791,33.6084
1289435131791,33.6364
1289435191791,33.7655
1289435251791,33.6531
1289435311791,33.5817
1289435371791,33.9683
1289435431791,33.7110
1289435491791,33.5995
1289435551791,33.6089
1289435611791,33.5708
1289435671791,33.5112
1289435731791,33.5955
1289435791791,33.6294
1289435851791,33.6273
1289435911791,33.4856
1289435971791,33.5011
1289436031791,33.5540
1289436091791,33.3860
1289436151791,33.5169
1289436211791,33.4783
1289436271791,33.4844
1289436331791,33.3083
1289436391791,33.4103
1289436451791,33.4240
1289436511791,33.4528
1289436571791,33.3459
1289436631791,33.4931
1289436691791,33.4655
1289436751791,33.4356
1289436811791,33.3399
1289436871791,33.3545
1289436931791,33.4433
1289436991791,33.3678
1289437051791,33.4032
1289437111791,33.4302
1289437171791,33.3616
1289437231801,33.3837
1289437291801,33.4360
1289437351801,33.4913
1289437411801,33.3440
1289437471801,33.4815
1289437531801,33.4315
1289437591801,33.4446
1289437651801,33.4052
1289437711801,33.5691
1289437771801,33.5209
1289437831801,33.5073
1289437891801,33.5262
1289437951801,33.4039
1289438011801,33.4509
1289438071801,33.4339
1289438131801,33.5487
1289438191801,33.4804
1289438251801,33.5163
1289438311801,33.5710
1289438371801,33.5022
1289438431801,33.4834
1289438491801,33.5645
1289438551801,33.5629
1289438611801,33.5048
1289438671801,33.5574
1289438731801,33.5862
1289438791801,33.5353
1289438851801,33.4022
1289438911801,33.4875
1289438971801,33.4363
1289439031801,33.5811
1289439091801,33.5715
1289439151801,33.4767
1289439211801,33.5932
1289439271801,33.4931
1289439331801,33.4797
1289439391801,33.5619
1289439451801,33.5204
1289439511801,33.5927
1289439571801,33.5034
1289439631801,33.6040
1289439691801,33.5506
1289439751801,33.5954
1289439811801,33.5944
1289439871801,33.7098
1289439931801,33.6088
1289439991801,33.5624
1289440051801,33.6185
1289440111801,33.5054
1289440171801,33.6140
1289440231801,33.4409
1289440291801,33.4928
1289440351801,33.5827
1289440411801,33.5798
1289440471801,33.4424
1289440531801,33.6759
1289440591801,33.6372
1289440651801,33.6526
1289440711801,33.5504
1289440771801,33.5971
1289440831811,33.6364
1289440891811,33.5914
1289440951811,33.6380
1289441011811,33.5964
1289441071811,33.5765
1289441131811,33.4644
1289441191811,33.4581
1289441251811,33.4152
1289441311811,33.5087
1289441371811,33.5916
1289441431811,33.5925
1289441491811,33.6256
1289441551811,33.6244
1289441611811,33.6838
1289441671811,33.5486
1289441731811,33.7069
1289441791811,33.6391
1289441851811,33.8043
1289441911811,33.6550
1289441971811,33.8286
1289442031811,33.7614
1289442091811,33.7873
1289442151811,33.8164
1289442211811,33.7451
1289442271811,33.6861
1289442331811,33.6599
1289442391811,33.6018
1289442451811,33.5499
1289442511811,33.6848
1289442571811,33.5668
1289442631811,33.5153
1289442691811,33.5950
1289442751811,33.4922
1289442811811,33.5420
1289442871811,33.4689
1289442931811,33.4378
1289442991811,33.5679
1289443051811,33.4605
1289443111811,33.5995
1289443171811,33.4974
1289443231811,33.4713
1289443291811,33.5130
1289443351811,33.4155
1289443411811,33.5119
1289443471811,33.3802
1289443531811,33.3426
1289443591811,33.4634
1289443651811,33.3679
1289443711811,33.3905
1289443771811,33.3182
1289443831811,33.3619
1289443891811,33.2786
1289443951811,33.2985
1289444011811,33.3530
1289444071811,33.3148
1289444131811,33.2352
1289444191811,33.2922
1289444251811,33.2869
1289444311811,33.2408
1289444371811,33.2447
1289444431821,33.2534
1289444491821,33.1339
1289444551821,33.1748
1289444611821,33.1174
1289444671821,33.2358
1289444731821,33.0343
1289444791821,33.1798
1289444851821,33.1491
1289444911821,33.1961
1289444971821,33.0721
1289445031821,32.9989
1289445091821,33.0839
1289445151821,33.0700
1289445211821,33.0406
1289445271821,33.1039
1289445331821,32.9990
1289445391822,33.0308
1289445451822,33.0808
1289445511822,33.4848
1289445571822,33.0734
1289445631822,32.9391
1289445691822,32.9869
1289445751821,32.9255
1289445811821,33.0503
1289445871821,32.9726
1289445931821,33.0111
1289445991821,33.1010
1289446051821,32.9406
1289446111821,33.0968
1289446171821,32.9545
1289446231821,33.0345
1289446291821,33.0793
1289446351821,33.0597
1289446411821,32.9962
1289446471821,33.0350
1289446531821,33.0252
1289446591821,33.0079
1289446651821,33.1315
1289446711821,33.0664
1289446771822,32.9821
1289446831822,33.0442
1289446891822,33.0898
1289446951822,33.0752
1289447011822,33.1570
1289447071821,33.0566
1289447131821,33.1051
1289447191821,33.1051
1289447251821,33.0314
1289447311821,33.1460
1289447371821,33.1495
1289447431821,33.1258
1289447491821,33.0745
1289447551821,33.1493
1289447611821,33.1479
1289447671821,33.0475
1289447731821,33.3741
1289447791821,33.0067
1289447851821,33.0724
1289447911821,33.0550
1289447971821,33.0243
1289448031832,33.0631
1289448091832,33.0076
1289448151832,33.0524
1289448211832,33.1142
1289448271832,33.0494
1289448331832,33.0763
1289448391832,33.0009
1289448451832,33.0542
1289448511832,32.9303
1289448571832,33.0418
1289448631832,32.9593
1289448691832,33.0695
1289448751832,33.0145
1289448811832,33.0438
1289448871832,32.9607
1289448931832,32.9853
1289448991832,33.0292
1289449051832,33.0041
1289449111832,33.0171
1289449171832,33.0421
1289449231832,33.0270
1289449291832,33.0762
1289449351832,33.0743
1289449411832,33.1048
1289449471832,33.1076
1289449531832,33.0288
1289449591832,33.0675
1289449651832,33.0155
1289449711832,33.1043
1289449771832,33.1207
1289449831832,33.0691
1289449891832,33.0980
1289449951832,33.1808
1289450011832,33.2039
1289450071832,33.1290
1289450131832,33.2184
1289450191832,33.2056
1289450251832,33.2596
1289450311832,33.1073
1289450371832,33.1044
1289450431832,33.0231
1289450491832,33.2227
1289450551832,33.1499
1289450611832,33.1647
1289450671832,33.0655
1289450731832,33.1512
1289450791832,33.0931
1289450851832,33.0906
1289450911832,33.0388
1289450971832,33.0977
1289451031832,33.1850
1289451091832,33.0784
1289451151832,33.1981
1289451211832,33.1698
1289451271832,33.0779
1289451331832,33.1390
1289451391832,33.1734
1289451451832,33.1310
1289451511832,33.0547
1289451571832,33.2390
1289451631842,33.1895
1289451691842,33.3036
1289451751842,33.3419
1289451811842,33.3888
1289451871842,33.2914
1289451931842,33.4005
1289451991842,33.3024
1289452051842,33.2564
1289452111842,33.3188
1289452171842,33.3873
1289452231842,33.4193
1289452291842,33.3117
1289452351842,33.4171
1289452411842,33.3404
1289452471842,33.4381
1289452531842,33.4326
1289452591842,33.4722
1289452651842,33.4581
1289452711842,33.3773
1289452771842,33.4159
1289452831842,33.3912
1289452891842,33.4053
1289452951842,33.2629
1289453011842,33.3190
1289453071842,33.2772
1289453131842,33.3156
1289453191842,33.3085
1289453251842,33.2524
1289453311842,33.3021
1289453371842,33.2470
1289453431842,33.2847
1289453491842,33.3078
1289453551842,33.2881
1289453611842,33.2621
1289453671842,33.3197
1289453731842,33.2327
1289453791842,33.2792
1289453851842,33.3216
1289453911842,33.3171
1289453971842,33.3257
1289454031842,33.3380
1289454091842,33.3010
1289454151842,33.2625
1289454211842,33.3104
1289454271842,33.3218
1289454331842,33.2958
1289454391842,33.3014
1289454451842,33.3574
1289454511842,33.3988
1289454571842,33.2579
1289454631842,33.4403
1289454691842,33.3530
1289454751842,33.4027
1289454811842,33.4275
1289454871842,33.3261
1289454931842,33.2325
1289454991842,33.2892
1289455051842,33.1728
1289455111842,33.2278
1289455171842,33.3050
1289455231852,33.1990
1289455291852,33.3509
1289455351852,33.2712
1289455411852,33.2051
1289455471852,33.2758
1289455531852,33.2669
1289455591852,33.3719
1289455651852,33.4283
1289455711852,33.3741
1289455771852,33.3672
1289455831852,33.4821
1289455891852,33.4975
1289455951852,33.4371
1289456011852,33.4433
1289456071852,33.4320
1289456131852,33.4481
1289456191852,33.6348
1289456251852,33.5751
1289456311852,33.5684
1289456371852,33.6039
1289456431852,33.6053
1289456491852,33.5788
1289456551852,33.5762
1289456611852,33.5424
1289456671852,33.5896
1289456731852,33.5588
1289456791852,33.5150
1289456851852,33.7012
1289456911852,33.5075
1289456971852,33.5256
1289457031852,33.5553
1289457091852,33.5715
1289457151852,33.5086
1289457211852,33.5005
1289457271852,33.4636
1289457331852,33.6027
1289457391852,33.4816
1289457451852,33.4344
1289457511852,33.5411
1289457571852,33.4967
1289457631852,33.5384
1289457691852,33.5191
1289457751852,33.5030
1289457811852,33.4412
1289457871852,33.4769
1289457931852,33.3826
1289457991852,33.5367
1289458051852,33.5511
1289458111852,33.5141
1289458171852,33.4214
1289458231852,33.5581
1289458291852,33.4566
1289458351852,33.3473
1289458411852,33.4198
1289458471852,33.3975
1289458531852,33.4774
1289458591852,33.4087
1289458651852,33.4446
1289458711852,33.5966
1289458771852,33.4114
1289458831863,33.5450
1289458891863,33.4724
1289458951863,33.4925
1289459011863,33.3955
1289459071863,33.4215
1289459131863,33.5242
1289459191863,33.4840
1289459251863,33.5517
1289459311863,33.5491
1289459371863,33.5480
1289459431863,33.4579
1289459491863,33.4840
1289459551863,33.5058
1289459611863,33.4995
1289459671863,33.4885
1289459731863,33.5100
1289459791863,33.5761
1289459851863,33.6073
1289459911863,33.6104
1289459971863,33.6558
1289460031863,33.7736
1289460091863,33.8143
1289460151863,33.8161
1289460211863,33.8466
1289460271863,33.8157
1289460331863,33.8770
1289460391863,33.9408
1289460451863,33.8903
1289460511863,34.0124
1289460571863,34.0560
1289460631863,34.0802
1289460691863,34.0430
1289460751863,33.9577
1289460811863,33.9572
1289460871863,34.0331
1289460931863,33.9354
1289460991863,34.0125
1289461051863,33.9196
1289461111863,33.8671
1289461171863,33.7953
1289461231863,33.8135
1289461291863,33.9221
1289461351863,33.8412
1289461411863,33.8536
1289461471863,33.9391
1289461531863,33.8729
1289461591863,33.8283
1289461651863,33.9691
1289461711863,33.7894
1289461771863,33.8673
1289461831863,33.8479
1289461891863,33.7637
1289461951863,33.8682
1289462011863,33.8668
1289462071863,33.8441
1289462131863,33.8957
1289462191863,33.8281
1289462251863,33.7681
1289462311863,33.7637
1289462371863,33.7489
1289462431873,33.7742
1289462491873,33.7818
1289462551873,33.7701
1289462611874,33.8817
1289462671874,33.6626
1289462731874,33.8344
1289462791874,33.6679
1289462851874,33.7338
1289462911874,33.7345
1289462971873,33.8088
1289463031873,33.7757
1289463091873,33.7457
1289463151873,33.7868
1289463211873,33.6810
1289463271873,33.7261
1289463331873,33.7173
1289463391873,33.7273
1289463451873,33.6820
1289463511873,33.6406
1289463571873,33.6689
1289463631873,33.7139
1289463691873,33.6177
1289463751873,33.7504
1289463811873,33.6263
1289463871873,33.6557
1289463931874,33.5624
1289463991874,33.5487
1289464051874,33.5236
1289464111874,33.5186
1289464171874,33.4368
1289464231874,33.5327
1289464291874,33.5459
1289464351873,33.4804
1289464411873,33.5146
1289464471873,33.4722
1289464531873,33.4580
1289464591873,33.4136
1289464651873,33.4218
1289464711873,33.4611
1289464771873,33.3978
1289464831873,33.4498
1289464891873,33.4351
1289464951874,33.3938
1289465011873,33.3794
1289465071873,33.4295
1289465131873,33.3513
1289465191873,33.3904
1289465251873,33.3746
1289465311874,33.3783
1289465371874,33.3948
1289465431874,33.3584
1289465491874,33.3923
1289465551874,33.3629
1289465611874,33.4081
1289465671873,33.4082
1289465731873,33.3589
1289465791873,33.2771
1289465851873,33.3752
1289465911873,33.3625
1289465971873,33.3057
1289466031885,33.3454
1289466091885,33.3346
1289466151885,33.3824
1289466211885,33.3462
1289466271885,33.3912
1289466331885,33.3266
1289466391885,33.3830
1289466451885,33.3383
1289466511885,33.3371
1289466571885,33.3395
1289466631885,33.3757
1289466691885,33.3451
1289466751885,33.3051
1289466811885,33.4073
1289466871885,33.2934
1289466931885,33.2946
1289466991885,33.3613
1289467051885,33.3996
1289467111885,33.4199
1289467171885,33.3110
1289467231885,33.3707
1289467291885,33.3409
1289467351885,33.3870
1289467411885,33.2781
1289467471885,33.3969
1289467531885,33.2861
1289467591885,33.3110
1289467651885,33.3742
1289467711885,33.2612
1289467771885,33.3949
1289467831885,33.3319
1289467891885,33.3529
1289467951885,33.3673
1289468011885,33.3171
1289468071885,33.4430
1289468131885,33.3927
1289468191885,33.3636
1289468251885,33.3706
1289468311885,33.4426
1289468371885,33.3441
1289468431885,33.4482
1289468491885,33.3977
1289468551885,33.3593
1289468611885,33.4449
1289468671885,33.3564
1289468731885,33.4333
1289468791885,33.3603
1289468851885,33.3429
1289468911885,33.3345
1289468971885,33.4377
1289469031885,33.3610
1289469091885,33.3506
1289469151885,33.4758
1289469211885,33.4592
1289469271885,33.4703
1289469331885,33.4971
1289469391885,33.5151
1289469451885,33.3412
1289469511885,33.4061
1289469571885,33.3636
1289469631896,33.3677
1289469691896,33.4287
1289469751896,33.4377
1289469811896,33.4524
1289469871896,33.4810
1289469931896,33.3857
1289469991896,33.3587
1289470051896,33.4252
1289470111896,33.4782
1289470171896,33.4305
1289470231896,33.5701
1289470291896,33.4954
1289470351896,33.4894
1289470411896,33.3838
1289470471896,33.5821
1289470531896,33.3979
1289470591896,33.5745
1289470651896,33.4911
1289470711896,33.4665
1289470771896,33.5478
1289470831896,33.4912
1289470891896,33.5481
1289470951896,33.5759
1289471011896,33.5939
1289471071896,33.6432
1289471131896,33.5685
1289471191896,33.4962
1289471251896,33.5281
1289471311896,33.5132
1289471371896,33.4174
1289471431896,33.5523
1289471491896,33.4918
1289471551896,33.5657
1289471611896,33.6010
1289471671896,33.6306
1289471731896,33.4080
1289471791896,33.6249
1289471851896,33.6137
1289471911896,33.6299
1289471971896,33.7216
1289472031896,33.6957
1289472091896,33.6583
1289472151896,33.7253
1289472211896,33.7651
1289472271896,33.5972
1289472331896,33.6070
1289472391896,33.6185
1289472451896,33.6399
1289472511896,33.5936
1289472571896,33.6075
1289472631896,33.5981
1289472691896,33.6787
1289472751896,33.5319
1289472811896,33.5516
1289472871896,33.5801
1289472931896,33.5467
1289472991896,33.5274
1289473051896,33.4727
1289473111896,33.5929
1289473171896,33.5200
1289473231907,33.4416
1289473291907,33.6044
1289473351907,33.5206
1289473411907,33.5002
1289473471907,33.5705
1289473531907,33.5067
1289473591907,33.4569
1289473651907,33.4097
1289473711907,33.6304
1289473771907,33.4505
1289473831907,33.4753
1289473891907,33.5207
1289473951907,33.4804
1289474011907,33.4709
1289474071907,33.5581
1289474131907,33.4536
1289474191907,33.5411
1289474251907,33.6245
1289474311907,33.5288
1289474371907,33.4702
1289474431907,33.5231
1289474491907,33.4542
1289474551907,33.5892
1289474611907,33.5024
1289474671907,33.4432
1289474731907,33.5093
1289474791907,33.4372
1289474851907,33.4462
1289474911907,33.4691
1289474971907,33.4902
1289475031907,33.4779
1289475091907,33.5102
1289475151907,33.5240
1289475211907,33.4273
1289475271907,33.4232
1289475331907,33.5371
1289475391907,33.4950
1289475451907,33.5121
1289475511907,33.4874
1289475571907,33.5963
1289475631907,33.4906
1289475691907,33.4913
1289475751907,33.5432
1289475811907,33.5653
1289475871907,33.5617
1289475931907,33.4207
1289475991907,33.5356
1289476051907,33.5706
1289476111907,33.5776
1289476171907,33.6021
1289476231907,33.5676
1289476291907,33.4429
1289476351907,33.4849
1289476411907,33.4324
1289476471907,33.5576
1289476531907,33.6325
1289476591907,33.5699
1289476651907,33.5393
1289476711907,33.7117
1289476771907,33.6078
1289476831919,33.6667
1289476891919,33.6817
1289476951919,33.6409
1289477011919,33.6010
1289477071919,33.6497
1289477131919,33.7098
1289477191919,33.7016
1289477251919,33.7161
1289477311919,33.6729
1289477371919,33.6576
1289477431919,33.6708
1289477491919,33.6997
1289477551919,33.6895
1289477611919,33.7182
1289477671919,33.6634
1289477731919,33.7777
1289477791919,33.6587
1289477851919,33.6795
1289477911919,34.1789
1289477971919,33.7659
1289478031919,33.7778
1289478091919,33.6445
1289478151919,33.8208
1289478211919,33.7293
1289478271919,33.7511
1289478331919,33.7477
1289478391919,33.7689
1289478451919,33.7866
1289478511919,33.8142
1289478571919,33.8094
1289478631919,33.8203
1289478691919,33.8665
1289478751919,33.7191
1289478811919,33.8565
1289478871919,33.8498
1289478931919,33.8128
1289478991919,33.9540
1289479051919,33.9118
1289479111919,33.8273
1289479171919,33.8186
1289479231919,33.9171
1289479291919,33.9655
1289479351919,33.9298
1289479411919,33.8416
1289479471919,33.8154
1289479531919,33.7639
1289479591919,33.8852
1289479651919,33.9277
1289479711919,33.8730
1289479771919,33.9150
1289479831919,33.8321
1289479891919,33.8743
1289479951919,33.9222
1289480011919,34.0551
1289480071919,33.8700
1289480131919,33.9753
1289480191919,33.8699
1289480251919,33.8515
1289480311919,33.9438
1289480371919,33.9781
1289480431931,33.9961
1289480491931,34.0150
1289480551931,34.1450
1289480611931,34.1605
1289480671931,34.0701
1289480731931,34.1245
1289480791931,34.0834
1289480851931,34.0592
1289480911931,34.2297
1289480971931,34.2909
1289481031931,34.3901
1289481091931,34.2850
1289481151931,34.3735
1289481211931,34.3485
1289481271931,34.1587
1289481331931,34.2363
1289481391931,34.3470
1289481451931,34.1756
1289481511931,34.2522
1289481571931,34.2266
1289481631931,34.2836
1289481691931,34.2276
1289481751931,34.3737
1289481811931,34.2058
1289481871931,34.1658
1289481931931,34.1295
1289481991931,34.1819
1289482051931,34.0916
1289482111931,34.1466
1289482171931,34.0357
1289482231931,34.1607
1289482291931,34.0692
1289482351931,34.0707
1289482411931,34.0989
1289482471931,34.0424
1289482531931,34.1039
1289482591931,34.1492
1289482651931,34.0610
1289482711931,34.2297
1289482771931,34.2407
1289482831931,34.2723
1289482891931,34.1963
1289482951931,34.2179
1289483011931,34.1126
1289483071931,34.0972
1289483131931,34.1372
1289483191931,34.0445
1289483251931,34.1842
1289483311931,34.0566
1289483371931,34.0612
1289483431931,34.1095
1289483491931,34.0228
1289483551931,34.1298
1289483611931,34.1490
1289483671931,33.9556
1289483731931,34.0678
1289483791931,33.9477
1289483851931,34.0778
1289483911931,33.9375
1289483971931,33.9604
1289484031943,33.9212
1289484091943,34.0559
1289484151943,34.0233
1289484211943,33.9615
1289484271943,34.0076
1289484331943,33.9973
1289484391943,33.9086
1289484451943,33.9610
1289484511943,34.0177
1289484571943,34.0718
1289484631943,34.0165
1289484691943,33.9950
1289484751943,34.0885
1289484811943,34.0210
1289484871943,33.9793
1289484931943,34.0521
1289484991943,34.0105
1289485051943,33.9355
1289485111943,34.0116
1289485171943,33.9373
1289485231943,34.0626
1289485291943,33.9386
1289485351943,33.9768
1289485411943,34.0096
1289485471943,34.0100
1289485531943,34.0862
1289485591943,33.9856
1289485651943,34.0276
1289485711943,34.0734
1289485771943,34.0010
1289485831943,33.9902
1289485891943,34.1166
1289485951943,34.0030
1289486011943,34.0660
1289486071943,34.1065
1289486131943,34.0848
1289486191943,34.0003
1289486251943,34.1224
1289486311943,34.1725
1289486371943,33.9550
1289486431943,34.0779
1289486491943,34.0620
1289486551943,34.1344
1289486611943,34.1155
1289486671943,34.0147
1289486731943,34.0538
1289486791943,34.0369
1289486851943,34.0200
1289486911943,34.0439
1289486971943,33.9551
1289487031943,33.9735
1289487091943,34.1077
1289487151943,34.0325
1289487211943,33.8991
1289487271943,33.9396
1289487331943,33.9671
1289487391943,33.9411
1289487451943,33.9804
1289487511943,33.9948
1289487571943,33.8092
1289487631956,33.8431
1289487691956,34.1021
1289487751956,33.9313
1289487811956,33.9308
1289487871956,33.9746
1289487931956,33.9828
1289487991956,33.9870
1289488051956,33.9674
1289488111956,33.9025
1289488171956,33.8939
1289488231956,33.8526
1289488291956,33.9035
1289488351956,33.8975
1289488411956,33.9250
1289488471956,33.9835
1289488531956,34.0054
1289488591956,33.8277
1289488651956,33.9433
1289488711956,33.9430
1289488771956,33.8760
1289488831956,33.8810
1289488891956,33.9362
1289488951956,33.9694
1289489011956,33.8942
1289489071956,33.9247
1289489131956,34.0173
1289489191956,33.8748
1289489251956,33.9427
1289489311956,33.8728
1289489371956,34.0269
1289489431956,33.9236
1289489491956,33.8932
1289489551956,33.9553
1289489611956,33.9495
1289489671956,33.8726
1289489731956,33.9469
1289489791956,33.9417
1289489851956,33.8929
1289489911956,33.8335
1289489971956,33.8375
1289490031956,33.8263
1289490091956,33.8372
1289490151956,33.9309
1289490211956,33.8699
1289490271956,33.9074
1289490331956,33.9109
1289490391956,33.8877
1289490451956,33.9653
1289490511956,33.9250
1289490571956,34.0552
1289490631956,33.9062
1289490691956,33.8932
1289490751956,34.0218
1289490811956,33.9967
1289490871956,34.0224
1289490931956,34.0420
1289490991956,34.0125
1289491051956,34.0020
1289491111956,34.1002
1289491171956,34.0139
1289491231968,33.9478
1289491291968,33.8955
1289491351968,34.0302
1289491411968,33.9886
1289491471968,34.1224
1289491531968,34.1205
1289491591968,34.0990
1289491651968,34.1251
1289491711968,34.1341
1289491771968,34.1380
1289491831968,34.2311
1289491891968,34.2176
1289491951968,34.1640
1289492011968,34.3158
1289492071968,34.3200
1289492131968,34.2908
1289492191968,34.2823
1289492251968,34.3116
1289492311968,34.4332
1289492371968,34.3528
1289492431968,34.4194
1289492491968,34.4663
1289492551968,34.4193
1289492611968,34.4828
1289492671968,34.4510
1289492731968,34.4351
1289492791968,34.4416
1289492851968,34.3742
1289492911968,34.4345
1289492971968,34.5705
1289493031968,34.5096
1289493091968,34.4885
1289493151968,34.4573
1289493211968,34.4673
1289493271968,34.5314
1289493331968,34.5063
1289493391968,34.5007
1289493451968,34.5771
1289493511968,34.5713
1289493571968,34.5224
1289493631968,34.4944
1289493691968,34.5269
1289493751968,34.6016
1289493811968,34.4647
1289493871968,34.5019
1289493931968,34.5830
1289493991968,34.4525
1289494051968,34.5137
1289494111968,34.4105
1289494171968,34.4993
1289494231968,34.5180
1289494291968,34.4418
1289494351968,34.4403
1289494411968,34.4021
1289494471968,34.3931
1289494531968,34.5250
1289494591968,34.3261
1289494651968,34.2624
1289494711968,34.3168
1289494771968,34.1912
1289494831980,34.2245
1289494891980,34.3028
1289494951980,34.3284
1289495011980,34.3918
1289495071980,34.3284
1289495131980,34.2988
1289495191980,34.3429
1289495251980,34.2065
1289495311980,34.3750
1289495371980,34.2893
1289495431980,34.2452
1289495491980,34.2453
1289495551980,34.2755
1289495611980,34.1992
1289495671980,34.2383
1289495731980,34.1277
1289495791980,34.2158
1289495851980,34.1686
1289495911980,34.1657
1289495971980,34.2288
1289496031980,34.2334
1289496091980,34.1813
1289496151980,34.1658
1289496211980,34.1212
1289496271980,34.2416
1289496331980,34.1468
1289496391980,34.2010
1289496451980,34.1963
1289496511980,34.1551
1289496571980,34.0918
1289496631980,34.1734
1289496691980,34.2612
1289496751980,34.2217
1289496811980,34.2890
1289496871980,34.1423
1289496931980,34.1541
1289496991980,34.2398
1289497051980,34.3133
1289497111980,34.2834
1289497171980,34.3139
1289497231980,34.1553
1289497291980,34.2119
1289497351980,34.2880
1289497411980,34.3400
1289497471980,34.2328
1289497531980,34.2105
1289497591980,34.2209
1289497651980,34.2046
1289497711980,34.2333
1289497771980,34.3305
1289497831980,34.2709
1289497891980,34.2576
1289497951980,34.2958
1289498011980,34.1813
1289498071980,34.2628
1289498131980,34.3465
1289498191980,34.2149
1289498251980,34.3854
1289498311980,34.2754
1289498371980,34.1295
1289498431992,34.2577
1289498491992,34.1842
1289498551992,34.2663
1289498611992,34.2214
1289498671992,34.3100
1289498731992,34.3198
1289498791992,34.2096
1289498851992,34.2620
1289498911992,34.3327
1289498971992,34.2413